SPACEMOBILE-SSR05 DEB, 62373

Orbit data source: Space-Track

SPACEMOBILE-SSR05 DEB, 62373 is space debris in LEO originally from a launch on Thu, 12 Sep 2024 UTC launched from the Air Force Eastern Test Range (AFETR). Debris objects in space refer to the collection of defunct objects orbiting the Earth. Examples of debris include non-operational satellites, rocket bodies, and fragments generated from explosions, collisions, or faulty payload assembly.

Loading next visibility...
Identifier
62373, 2024-163K
Orbit
LEO
Last TLE update
1 day ago
Origin
Manufacturer
AST & Science
Mission
Spacecraft
Bus & Motor
BW3 LVA, Unknown motor
Mass
150 kg wet, 150 kg dry
Launch date (UTC)
2024-09-12 (10 months ago)
Launch vehicle
Unknown
Launch site
Air Force Eastern Test Range (AFETR)
Object type
Payload
Rocket body
Debris
Shape & HBR
Cyl, 2 m
Radar Cross Section
1.963 m², Large (>1 m²)

Expand to show TLE details & history

TLE from 1 day ago
0 SPACEMOBILE-SSR05 DEB
1 62373U 24163K   25181.26024664  .00005640  00000-0  23623-3 0  9998
2 62373  52.9755 123.1938 0009687 122.1101 238.0836 15.25000307 44271
Epoch: 2025-06-30T06:14Z
TLE epoch observation values (Epoch: 2025-06-30T06:14:45.309Z)
Latitude
-0.00008°
Longitude
110.93235°
Altitude
495.185 km
Speed
7.616 km/s
True Right ascension
08h 12m 46s
True Declination
0° 00' 00"
Sunlit
Object was in daylight at epoch
Visualization orbit readout
Latitude
-20.99099°
Longitude
88.76802°
Altitude
502.487 km
Speed
7.61 km/s
Apparent Right ascension
08h 10m 03s
Apparent Declination
-32° 23' 59"
Sunlit
Object is in daylight
Visualization observer readout
Local Sidereal Time
22:04:56
Azimuth
81.014° E
Elevation
-65.747°
Doppler factor
1
Orbital elements
Apogee altitude
497.724 km
Perigee altitude
484.416 km
Semi-major axis
6,869.207 km
Eccentricity
0.00097
Inclination
52.9755°
RAAN
123.1938°
Arg. of periapsis
122.1101°
True anomaly
Unknown
Mean anomaly
238.0836°
Eccentric anomaly
Unknown
Mean motion
3.81227 °/min
Orbital period
94.43 mins
BSTAR
0.00023623
Loading maneuver chart data...
Loading SW <> Apogee altitude chart data...
Loading historical data...
Loading historical data...
Loading historical data...
Loading historical data...
Loading historical data...
Loading historical data...
Loading historical data...

SPACEMOBILE-SSR05 DEB Visibility forecast

Observer location: undefined°, undefined°

Span
Click to sort rows by Start time (UTC) header in descending order
Start Az.
Max El. time (UTC)
Max El. Az.
Max El.
End time (UTC)
End Az.
5 mins2025-07-01 21:43:29.516Z187.408° SSW2025-07-01 21:46:29.516Z121.734° SE25.467°2025-07-01 21:48:29.516Z79.778° E
5 mins2025-07-01 23:22:29.516Z274.926° WNW2025-07-01 23:24:29.516Z333.615° NNW30.671°2025-07-01 23:27:29.516Z34.691° NE
5 mins2025-07-02 04:20:29.516Z342.053° N2025-07-02 04:22:29.516Z36.33° NE27.43°2025-07-02 04:25:29.516Z93.378° ESE
5 mins2025-07-02 05:58:29.516Z281.845° WNW2025-07-02 06:00:29.516Z230.483° WSW29.819°2025-07-02 06:03:29.516Z163.808° S
|